Content
SEND FEEDBACK

Daily
Averages
Monthly
Summary
France

AVIGNON, FRANCE


Home > Europe > France
Elevation: 187 feet     Latitude: 44 00N     Longitude: 004 45E

WEATHER
 
SELECT A DAY
Number of Records: 167,100;   Date Range: 5/17/04 - 7/20/14
 
SHARE

PRINT THIS DATA

[ ← Previous Day ]
WEATHER ALMANAC - JANUARY 24, 2013
[ Next Day → ]
[ °C ]   °F
Weather ElementAverageHighLow
Temperature37.4 °F44.6 °F (11:00 am)28.4 °F (8:00 am)
Dewpoint29.7 °F33.8 °F (12:30 am)26.6 °F (8:00 am)
Humidity75.2 %100 % (9:00 am)61 % (11:30 am)
Barometer29.61 in29.68 in (8:30 pm)29.56 in (2:30 am)
Wind Speed17.4 mph34.5 mph (8:00 pm)
Wind Gust56.4 mph (8:00 pm)
Weather ElementAverage
Visibility6.2 mi
Wind DirectionW (267.7 °)

Weather ElementTotal
Precipitation---
Heating Degree Days28.5 (Base 65)
Averaged from 47 records on January 24, 2013
WEATHER CONDITIONS BREAKOUT
WIND DIRECTION BREAKOUT
WEATHER BY HOUR - JANUARY 24, 2013
[ °C ]   °F
Local TimeTemperatureDewpointHumidityBarometerVisibilityWind DirectionWind SpeedGust SpeedPrecipitationEventsConditions
12:30 AM39.2 °F33.8 °F81 %29.62 in6.2 miNorth (350°)12.7 mph
1:00 AM39.2 °F33.8 °F81 %29.62 in6.2 miNorth (360°)10.4 mph
1:30 AM37.4 °F32.0 °F81 %29.62 in6.2 miNorth (350°)8.1 mph
2:00 AM37.4 °F32.0 °F81 %29.59 in6.2 miNorth (360°)4.6 mph
2:30 AM37.4 °F32.0 °F81 %29.56 in6.2 miEast (90°)3.5 mph
3:00 AM33.8 °F30.2 °F87 %29.59 in6.2 miSouth (170°)3.5 mph
3:30 AM32.0 °F30.2 °F93 %29.59 in6.2 miVariable2.3 mph
4:00 AM32.0 °F30.2 °F93 %29.62 in6.2 miVariable2.3 mph
4:30 AM30.2 °F28.4 °F93 %29.62 in6.2 miCalm
5:00 AM30.2 °F28.4 °F93 %29.62 in6.2 miVariable2.3 mph
5:30 AM30.2 °F28.4 °F93 %29.59 in6.2 miVariable2.3 mph
6:00 AM32.0 °F28.4 °F87 %29.59 in6.2 miNNW (340°)4.6 mph
6:30 AM30.2 °F28.4 °F93 %29.59 in6.2 miNorth (360°)3.5 mph
7:00 AM30.2 °F28.4 °F93 %29.59 in6.2 miCalm
7:30 AM30.2 °F28.4 °F93 %29.59 in6.2 miEast (90°)4.6 mph
8:00 AM28.4 °F26.6 °F93 %29.59 in6.2 miCalm
8:30 AM28.4 °F26.6 °F93 %29.59 in6.2 miCalm
9:00 AM28.4 °F28.4 °F100 %29.59 in4.3 miSSE (150°)2.3 mph
9:30 AM32.0 °F32.0 °F100 %29.59 in6.2 miVariable2.3 mph
10:00 AM37.4 °F32.0 °F81 %29.59 in6.2 miNorth (360°)4.6 mph
10:30 AM41.0 °F33.8 °F76 %29.59 in6.2 miNorth (360°)8.1 mph
11:00 AM44.6 °F33.8 °F66 %29.59 in6.2 miNorth (350°)15.0 mph
11:30 AM44.6 °F32.0 °F61 %29.59 in6.2 miNorth (360°)20.7 mph
12:00 PM44.6 °F32.0 °F61 %29.59 in6.2 miNorth (360°)21.9 mph
12:30 PM44.6 °F32.0 °F61 %29.59 in6.2 miNorth (360°)21.9 mph
1:00 PM44.6 °F33.8 °F66 %29.59 in6.2 miNorth (350°)17.3 mph
1:30 PM44.6 °F32.0 °F61 %29.59 in6.2 miNorth (350°)19.6 mph
2:00 PM44.6 °F32.0 °F61 %29.59 in6.2 miNorth (350°)24.2 mph
2:30 PM42.8 °F30.2 °F61 %29.59 in6.2 miNorth (350°)26.5 mph40.3 mph
3:00 PM42.8 °F30.2 °F61 %29.59 in6.2 miNorth (360°)29.9 mph
3:30 PM42.8 °F30.2 °F61 %29.59 in6.2 miNorth (350°)28.8 mph46.0 mph
4:00 PM41.0 °F30.2 °F65 %29.59 in6.2 miNorth (350°)31.1 mph
4:30 PM41.0 °F30.2 °F65 %29.59 in6.2 miNorth (350°)32.2 mph
5:00 PM39.2 °F28.4 °F65 %29.62 in6.2 miNorth (360°)29.9 mph42.6 mph
5:30 PM37.4 °F30.2 °F75 %29.62 in6.2 miNorth (350°)31.1 mph46.0 mph
6:00 PM37.4 °F28.4 °F70 %29.62 in6.2 miNorth (350°)32.2 mph43.7 mph
6:30 PM37.4 °F28.4 °F70 %29.65 in6.2 miNorth (350°)28.8 mph42.6 mph
7:00 PM39.2 °F28.4 °F65 %29.65 in6.2 miNorth (350°)33.4 mph47.2 mph
7:30 PM39.2 °F28.4 °F65 %29.65 in6.2 miNorth (360°)31.1 mph46.0 mph
8:00 PM39.2 °F28.4 °F65 %29.65 in6.2 miNorth (360°)34.5 mph56.4 mph
8:30 PM39.2 °F26.6 °F61 %29.68 in6.2 miNorth (360°)31.1 mph50.6 mph
9:00 PM39.2 °F26.6 °F61 %29.68 in6.2 miNorth (360°)34.5 mph49.5 mph
9:30 PM37.4 °F26.6 °F65 %29.68 in6.2 miNorth (360°)34.5 mph50.6 mph
10:00 PM39.2 °F26.6 °F61 %29.68 in6.2 miNorth (360°)33.4 mph49.5 mph
10:30 PM37.4 °F26.6 °F65 %29.68 in6.2 miNorth (360°)29.9 mph44.9 mph
11:00 PM37.4 °F26.6 °F65 %29.68 in6.2 miNorth (360°)32.2 mph44.9 mph
11:30 PM37.4 °F26.6 °F65 %29.68 in6.2 miNorth (360°)29.9 mph42.6 mph
Hourly data recorded from LFMV, located miles away from Avignon, France







STORIES FROM OUR PARTNERS